Wind_Speed
29 29 29 29 29 29 30 30 31 31 32 31 31 32 32 33 34 35 36 37 37 38 39 40 41 42 43 44 45 45 46 45 45 44 44 45 46 47 47 47 48 48 47
29 29 29 29 30 30 30 31 32 32 32 33 32 32 33 34 34 36 37 38 39 39 40 40 41 43 44 45 45 45 45 45 45 44 44 46 46 47 47 47 47 47 47
29 30 30 30 30 31 31 32 32 32 33 33 33 34 34 34 35 37 38 39 40 40 40 41 42 42 43 44 44 44 45 45 46 46 45 46 46 46 46 47 47 47 47
30 31 30 30 31 32 33 33 33 34 34 35 35 35 36 36 37 38 39 40 40 41 41 42 42 42 43 43 44 43 44 45 46 46 46 46 46 45 45 46 46 46 46
32 32 33 33 33 33 34 34 34 36 36 37 38 37 38 38 39 40 40 41 41 42 42 42 42 43 43 44 43 44 44 45 45 45 45 45 45 45 45 46 46 45 45
34 34 35 35 34 35 35 35 36 36 37 38 39 39 40 40 41 41 41 42 41 42 42 42 43 43 44 44 43 44 44 44 44 45 44 44 44 45 46 46 46 45 45
36 36 36 36 37 37 37 37 38 38 38 39 40 41 41 42 42 42 43 43 43 43 43 43 44 44 44 44 45 45 44 44 44 43 43 44 45 46 46 46 45 44 44
38 38 38 38 38 38 39 40 40 41 41 41 41 42 42 42 43 43 43 43 44 44 44 44 44 45 44 45 44 44 43 43 43 43 44 44 45 45 46 46 45 45 45
40 40 40 40 40 40 40 41 41 42 42 42 42 43 43 43 43 44 44 44 44 45 45 45 45 45 45 44 44 43 42 42 42 43 45 46 46 46 47 47 47 48 47
42 42 42 42 42 42 42 42 43 43 43 43 44 44 44 44 45 45 45 44 44 45 45 45 45 44 44 44 44 44 43 43 44 45 46 46 46 47 47 48 49 49 49
43 43 43 44 44 44 44 44 44 44 44 44 45 45 45 46 46 47 46 45 44 44 44 44 43 43 43 43 44 45 45 45 45 45 46 47 47 48 48 49 50 50 50
44 44 44 45 45 46 46 46 46 46 46 46 46 46 46 46 47 47 46 45 45 44 44 44 44 44 45 45 45 45 46 47 46 47 47 48 49 49 50 50 50 50 50
45 45 46 46 46 47 47 47 47 47 47 47 47 47 47 47 47 47 47 47 47 47 46 46 46 46 46 46 46 47 48 48 48 48 48 49 50 50 50 50 50 50 50
45 45 45 46 46 47 48 48 48 48 48 48 48 47 47 48 48 47 47 48 48 47 47 46 47 47 47 47 48 48 49 49 49 49 50 51 52 52 51 51 51 51 50
46 46 46 47 47 48 48 48 49 50 50 49 48 48 48 48 48 48 49 48 48 48 48 48 48 49 49 49 50 51 51 51 51 51 52 52 52 52 52 52 51 51 50
47 47 47 48 48 48 48 48 49 50 50 49 49 49 49 50 50 50 50 50 49 49 49 49 50 50 51 51 51 52 53 54 54 54 54 54 53 52 52 51 51 50 50
48 48 49 49 49 49 49 49 49 50 50 50 51 50 50 50 51 51 51 50 50 50 50 51 51 52 53 53 54 54 55 55 54 53 53 53 52 51 51 50 50 49 49
49 49 50 50 50 50 50 50 50 50 49 50 51 51 51 51 52 52 51 51 51 50 51 51 52 52 53 53 54 54 54 53 53 52 52 51 50 50 49 49 49 49 49
51 51 51 51 51 51 51 51 51 51 50 50 51 52 52 52 52 52 51 50 50 50 50 51 51 52 52 52 52 52 52 52 51 51 51 50 49 49 48 48 47 47 47
51 51 52 52 52 52 52 52 52 52 51 52 52 52 52 51 51 51 51 51 50 50 50 51 51 51 52 52 51 51 51 51 50 49 49 49 48 47 47 46 46 45 45
51 51 51 52 52 52 52 53 52 52 52 52 52 52 52 52 52 51 51 50 50 51 51 51 52 52 52 52 51 51 50 49 49 48 48 47 46 45 45 44 44 43 43
51 52 52 52 53 53 53 53 52 52 51 51 52 52 52 52 52 51 51 51 51 52 52 52 52 52 52 52 51 50 49 48 47 46 46 45 45 44 44 44 44 44 44
51 51 52 52 53 53 53 52 52 51 51 51 51 51 51 51 51 51 51 51 51 51 51 52 51 50 50 50 49 48 48 47 47 47 46 46 45 45 44 44 44 44 44
49 50 50 50 50 50 50 50 49 49 49 49 49 49 48 48 49 49 49 49 49 49 49 49 48 48 48 48 48 48 48 48 47 46 46 46 46 45 45 45 44 43 43
47 47 48 48 48 47 47 47 47 47 47 47 47 47 47 47 46 46 46 46 46 47 47 47 46 46 47 47 47 48 48 47 45 45 45 45 45 45 45 44 44 43 43
45 46 46 46 46 45 45 45 46 46 46 46 46 45 45 45 45 45 46 46 46 46 46 45 45 44 45 45 45 45 45 45 44 44 44 44 44 43 43 43 43 43 42
Wind_Direction
268 265 264 266 268 269 269 270 271 270 272 271 271 272 274 275 276 278 280 282 284 285 286 287 288 289 290 289 288 288 287 287 287 286 286 286 286 286 286 286 286 286 286
268 265 265 266 268 269 270 270 271 272 273 273 273 274 275 276 278 279 280 282 283 285 286 287 288 289 290 290 289 288 287 286 287 286 286 287 287 287 287 287 287 287 286
268 266 266 266 266 267 268 269 270 271 273 273 272 273 275 277 279 281 281 282 284 285 285 287 289 289 290 290 289 288 286 285 286 286 287 287 287 287 288 288 287 287 287
268 267 267 266 267 268 268 268 270 271 271 271 273 274 276 277 278 280 281 284 285 285 286 287 288 289 290 290 289 288 288 286 287 287 287 287 288 288 289 289 289 288 288
269 268 268 267 268 269 268 268 270 271 271 272 273 274 277 278 279 280 282 285 285 286 286 287 288 288 289 290 289 289 289 288 288 288 287 288 288 289 290 290 289 288 288
269 269 269 269 269 269 269 269 270 270 271 272 273 274 276 278 278 279 283 284 285 286 286 287 288 288 289 290 290 290 290 290 290 289 289 289 290 290 290 290 289 289 288
269 269 270 270 270 270 270 270 270 271 273 275 275 276 277 278 279 281 283 284 285 286 286 286 288 288 290 290 290 290 290 290 290 289 290 290 290 290 290 291 290 290 290
269 269 270 270 271 271 271 271 272 273 274 276 275 276 278 279 280 281 283 284 285 286 287 287 288 289 289 289 289 289 291 291 291 291 290 290 290 290 290 290 291 291 291
270 270 270 271 271 272 272 273 274 275 276 277 276 277 278 279 280 282 284 284 285 286 287 288 289 288 288 288 288 290 291 291 291 290 290 290 290 290 289 290 290 291 291
270 270 271 271 272 272 272 273 274 275 276 277 276 276 277 279 280 282 283 284 285 286 287 288 288 288 287 287 288 289 290 290 291 290 291 291 291 290 290 290 290 291 291
271 271 271 272 272 272 272 273 274 275 276 276 276 276 276 278 279 281 282 283 284 285 287 288 288 288 287 287 287 289 290 290 290 291 291 291 291 291 291 290 290 290 290
272 273 273 273 272 272 272 273 274 274 275 276 276 276 277 278 279 280 281 282 283 284 286 287 287 287 287 287 287 288 289 290 291 291 291 291 291 291 291 290 290 289 289
271 272 273 273 273 273 273 273 273 274 275 275 276 277 278 279 279 279 281 282 283 284 285 286 287 287 288 287 287 288 289 290 290 291 291 291 291 291 290 289 289 288 287
271 272 273 273 273 273 273 273 273 274 274 275 276 277 278 279 279 280 281 282 283 285 286 286 287 288 289 289 289 289 290 291 291 290 291 291 291 290 289 289 288 288 287
271 272 272 273 273 273 273 273 273 274 274 275 275 277 278 279 279 280 281 281 282 284 286 287 288 288 289 290 290 291 291 291 291 291 291 291 290 289 289 289 289 288 288
272 272 273 274 274 274 274 274 274 274 274 275 276 277 277 277 278 279 281 281 282 283 284 286 287 288 288 289 290 290 291 292 292 292 292 292 291 290 289 289 289 288 288
273 273 273 274 275 275 276 275 275 275 275 276 276 277 277 278 278 279 280 280 281 283 284 285 286 287 288 288 290 291 292 292 292 293 293 293 291 290 290 289 289 288 287
273 274 274 275 275 276 276 276 276 276 275 276 276 277 277 278 279 280 279 280 281 282 284 285 286 287 288 289 290 291 291 291 292 293 293 292 291 291 290 290 289 288 288
274 274 275 275 276 276 276 276 277 276 276 277 277 277 277 278 279 280 280 280 281 282 283 284 286 287 288 289 289 290 291 292 292 293 293 292 291 291 290 290 289 289 289
274 274 274 275 275 276 276 276 276 276 277 278 278 278 277 278 278 279 279 280 281 282 283 284 285 287 288 289 289 290 290 291 292 292 293 292 291 291 290 290 289 289 289
274 274 275 275 275 275 276 276 276 276 277 278 278 278 277 277 277 278 279 280 281 282 283 284 285 287 288 288 289 289 290 290 291 292 293 293 292 291 291 290 290 290 290
274 275 276 276 275 275 275 275 276 276 277 278 278 278 277 277 277 278 279 280 281 282 283 284 285 286 287 288 288 288 289 289 290 291 292 292 292 291 291 291 291 291 291
275 276 276 276 276 276 275 275 276 277 277 278 278 278 278 278 278 278 279 281 281 283 284 285 285 285 286 286 287 287 288 289 289 290 290 291 291 291 290 290 291 290 290
276 276 276 276 276 276 275 275 276 277 277 278 278 278 278 278 278 279 280 281 282 283 284 285 285 285 285 286 286 286 287 287 288 288 289 290 290 290 289 290 290 290 290
276 276 276 276 276 275 275 275 276 277 277 277 278 278 278 278 279 279 279 281 282 284 285 285 285 285 285 285 285 285 286 286 286 286 287 288 289 289 288 289 289 289 290
277 277 277 276 276 275 276 276 276 277 277 278 278 278 279 279 279 279 280 281 282 284 285 285 285 285 286 286 286 286 286 285 285 285 286 287 288 288 288 289 289 290 290
Height
5667 5666 5666 5666 5665 5665 5664 5664 5663 5662 5662 5661 5660 5660 5659 5658 5657 5656 5654 5652 5650 5647 5645 5642 5639 5636 5633 5629 5626 5623 5619 5616 5614 5612 5608 5605 5601 5598 5594 5592 5589 5586 5583
5658 5658 5658 5658 5657 5657 5656 5656 5655 5654 5653 5652 5651 5651 5650 5649 5648 5646 5645 5642 5640 5637 5634 5631 5628 5625 5621 5617 5614 5610 5607 5604 5601 5599 5596 5592 5589 5585 5581 5578 5575 5572 5570
5650 5650 5650 5649 5649 5648 5648 5647 5646 5646 5645 5644 5643 5642 5641 5640 5638 5636 5634 5632 5629 5626 5623 5620 5617 5613 5609 5605 5602 5598 5595 5592 5589 5586 5584 5580 5576 5572 5568 5565 5562 5559 5556
5642 5642 5641 5641 5640 5640 5639 5638 5637 5637 5636 5635 5634 5633 5632 5630 5628 5626 5624 5622 5619 5615 5612 5608 5605 5601 5598 5594 5590 5587 5583 5580 5577 5574 5571 5567 5564 5560 5556 5552 5549 5545 5543
5634 5633 5632 5632 5631 5630 5630 5629 5628 5627 5627 5626 5625 5623 5621 5620 5618 5616 5613 5611 5607 5604 5601 5597 5594 5590 5586 5583 5579 5575 5572 5568 5565 5561 5558 5555 5551 5547 5544 5540 5536 5532 5530
5625 5624 5623 5622 5622 5621 5620 5619 5618 5617 5616 5615 5614 5612 5611 5609 5607 5605 5602 5599 5596 5593 5590 5586 5583 5579 5575 5571 5567 5564 5560 5556 5553 5549 5546 5543 5540 5536 5531 5527 5524 5521 5518
5614 5614 5613 5612 5611 5610 5609 5609 5608 5606 5605 5604 5602 5601 5600 5597 5595 5593 5590 5588 5585 5582 5578 5575 5571 5568 5564 5560 5556 5552 5549 5545 5541 5538 5535 5531 5527 5524 5520 5516 5512 5508 5506
5603 5603 5602 5602 5600 5599 5599 5598 5596 5595 5594 5592 5591 5589 5588 5585 5583 5581 5578 5575 5573 5569 5566 5562 5559 5555 5552 5548 5545 5541 5537 5533 5530 5526 5523 5519 5515 5511 5507 5503 5499 5496 5494
5592 5591 5591 5590 5589 5588 5587 5586 5585 5583 5582 5580 5578 5577 5575 5573 5571 5568 5566 5563 5560 5557 5554 5550 5546 5543 5539 5536 5533 5530 5526 5522 5518 5514 5510 5506 5502 5498 5494 5490 5486 5483 5480
5580 5579 5578 5578 5577 5576 5575 5574 5572 5571 5569 5568 5566 5564 5562 5560 5558 5555 5552 5550 5548 5545 5541 5537 5534 5530 5527 5523 5520 5517 5514 5510 5506 5502 5498 5494 5489 5485 5480 5476 5472 5468 5465
5567 5566 5566 5565 5564 5563 5562 5561 5559 5558 5557 5555 5553 5551 5549 5547 5545 5542 5539 5537 5534 5531 5528 5525 5521 5517 5514 5511 5507 5504 5501 5497 5493 5489 5485 5481 5476 5472 5467 5462 5458 5453 5450
5554 5553 5552 5551 5550 5549 5548 5547 5546 5544 5543 5541 5539 5538 5536 5534 5531 5529 5526 5523 5521 5518 5515 5511 5508 5505 5501 5498 5494 5491 5487 5484 5480 5476 5472 5467 5463 5458 5453 5448 5444 5439 5435
5540 5539 5538 5537 5536 5535 5534 5533 5531 5530 5528 5527 5525 5524 5522 5519 5517 5515 5512 5509 5507 5504 5501 5498 5495 5491 5488 5484 5481 5477 5474 5470 5466 5461 5457 5453 5448 5443 5438 5434 5429 5425 5421
5526 5525 5523 5522 5521 5520 5519 5517 5516 5515 5513 5512 5510 5509 5507 5505 5503 5500 5498 5496 5493 5490 5487 5484 5481 5477 5474 5470 5467 5463 5459 5455 5451 5447 5442 5437 5432 5427 5423 5418 5414 5410 5406
5511 5510 5509 5508 5506 5505 5503 5502 5501 5499 5498 5497 5495 5494 5492 5491 5488 5486 5483 5481 5478 5475 5472 5470 5467 5463 5460 5456 5453 5449 5444 5440 5436 5431 5426 5422 5416 5411 5407 5402 5398 5394 5390
5497 5496 5494 5493 5491 5490 5488 5487 5485 5484 5482 5480 5479 5478 5477 5475 5473 5471 5468 5466 5463 5461 5458 5455 5452 5448 5445 5441 5437 5433 5429 5424 5420 5415 5410 5405 5400 5395 5391 5386 5382 5378 5374
5482 5480 5479 5477 5476 5474 5473 5472 5470 5468 5466 5465 5463 5462 5460 5459 5457 5455 5453 5450 5448 5445 5442 5439 5436 5433 5429 5425 5421 5417 5413 5408 5403 5398 5393 5388 5384 5379 5375 5371 5367 5363 5359
5466 5465 5463 5462 5460 5459 5457 5456 5454 5453 5452 5449 5447 5445 5444 5442 5440 5438 5436 5434 5432 5429 5426 5423 5420 5416 5413 5409 5405 5401 5396 5392 5387 5382 5377 5372 5368 5364 5359 5355 5351 5347 5343
5450 5449 5447 5446 5444 5443 5441 5439 5438 5437 5435 5434 5432 5429 5427 5425 5423 5421 5419 5418 5415 5413 5410 5407 5403 5400 5396 5393 5389 5384 5380 5376 5371 5366 5362 5357 5353 5348 5344 5340 5336 5332 5328
5433 5432 5430 5429 5428 5426 5424 5423 5421 5419 5418 5416 5415 5413 5410 5409 5407 5405 5403 5401 5399 5396 5393 5390 5387 5384 5380 5376 5373 5369 5364 5360 5356 5351 5347 5342 5338 5333 5329 5325 5321 5318 5314
5416 5414 5413 5412 5410 5409 5407 5406 5404 5402 5401 5399 5397 5395 5393 5391 5390 5388 5386 5384 5381 5379 5376 5374 5371 5367 5364 5360 5356 5353 5349 5345 5340 5336 5332 5327 5323 5319 5315 5311 5307 5304 5300
5399 5397 5396 5395 5393 5391 5390 5388 5386 5385 5383 5381 5379 5377 5375 5374 5372 5371 5369 5367 5364 5362 5359 5357 5354 5350 5347 5344 5340 5337 5333 5329 5326 5322 5318 5314 5309 5305 5301 5298 5294 5290 5286
5382 5381 5379 5377 5376 5374 5372 5370 5369 5367 5366 5364 5362 5360 5358 5356 5355 5353 5351 5349 5347 5344 5342 5339 5336 5333 5330 5327 5324 5320 5317 5314 5311 5307 5303 5300 5296 5292 5288 5284 5280 5276 5272
5366 5364 5362 5360 5359 5357 5355 5353 5352 5350 5348 5347 5345 5343 5341 5340 5338 5336 5334 5332 5330 5327 5324 5322 5319 5317 5314 5311 5308 5305 5301 5298 5295 5292 5288 5285 5281 5277 5274 5270 5266 5262 5258
5350 5348 5346 5344 5343 5341 5339 5338 5336 5334 5332 5330 5329 5327 5325 5323 5322 5320 5318 5316 5313 5311 5308 5306 5303 5300 5297 5295 5291 5289 5286 5282 5279 5276 5273 5270 5266 5262 5259 5255 5251 5248 5244
5334 5333 5331 5329 5327 5326 5324 5322 5320 5319 5317 5315 5313 5312 5310 5308 5306 5305 5303 5301 5298 5296 5293 5290 5288 5285 5282 5279 5276 5273 5270 5267 5264 5260 5257 5255 5251 5248 5244 5241 5237 5233 5230